Location: Cheching
(60.0667°N, 164.2167°W)
Time: 12:19:12
(UTC+00:00)

Envisat - Visible Passes

Search period start: 28 October 2020 00:00
Search period end: 07 November 2020 00:00
Orbit: 764 x 766 km, 98.1° (Epoch: 28 October)

Date Brightness Start Highest point End Pass type
(mag) Time Alt. Az. Time Alt. Az. Time Alt. Az.
28 Oct 4.3 04:22:57 10° S 04:27:51 46° W 04:32:46 10° NNW visible
28 Oct 6.5 06:07:09 10° W 06:08:13 11° WNW 06:09:18 10° WNW visible
28 Oct 4.9 16:21:34 10° NNE 16:26:11 33° E 16:30:47 10° SSE visible
29 Oct 3.3 03:45:46 10° SSE 03:50:53 79° WSW 03:56:01 10° NNW visible
29 Oct 5.9 05:27:12 10° SW 05:30:46 19° W 05:34:20 10° NW visible
29 Oct 5.8 15:45:14 10° NE 15:48:56 20° E 15:52:38 10° SE visible
29 Oct 3.2 17:23:38 10° NNE 17:28:46 83° ESE 17:33:52 10° SSW visible
30 Oct 5.0 04:48:58 10° SSW 04:53:29 32° W 04:58:03 10° NNW visible
30 Oct 6.5 15:09:53 10° ENE 15:11:30 11° ENE 15:13:06 10° E visible
30 Oct 4.1 16:46:52 10° NNE 16:51:50 49° E 16:56:45 10° S visible
31 Oct 3.9 04:11:25 10° S 04:16:24 54° W 04:21:25 10° NNW visible
31 Oct 6.4 05:54:25 10° WSW 05:56:38 13° WNW 05:58:52 10° NW visible
31 Oct 5.2 16:10:17 10° NNE 16:14:42 29° E 16:19:06 10° SSE visible
01 Nov 5.7 05:15:19 10° SW 05:19:14 22° W 05:23:10 10° NW visible
01 Nov 6.0 15:34:06 10° NE 15:37:24 17° E 15:40:41 10° ESE visible
01 Nov 3.4 17:12:15 10° NNE 17:17:23 71° ESE 17:22:27 10° S visible
02 Nov 4.7 04:37:18 10° SSW 04:42:01 37° W 04:46:45 10° NNW visible
02 Nov 4.5 16:35:32 10° NNE 16:40:23 41° E 16:45:11 10° SSE visible
03 Nov 3.6 03:59:56 10° S 04:04:58 64° WSW 04:10:04 10° NNW visible
03 Nov 6.2 05:42:09 10° WSW 05:45:04 15° W 05:47:58 10° NW visible
03 Nov 5.4 15:59:02 10° NE 16:03:12 25° E 16:07:20 10° SE visible
03 Nov 3.0 17:37:43 10° NNE 17:42:50 81° WNW 17:47:55 10° SSW visible
04 Nov 5.4 05:03:29 10° SW 05:07:43 26° W 05:11:56 10° NNW visible
04 Nov 6.2 15:23:05 10° NE 15:25:50 14° E 15:28:35 10° ESE visible
04 Nov 3.7 17:00:53 10° NNE 17:05:57 61° ESE 17:11:00 10° S visible
05 Nov 4.4 04:25:42 10° S 04:30:33 43° W 04:35:26 10° NNW visible
05 Nov 4.8 16:24:13 10° NNE 16:28:54 35° E 16:33:34 10° SSE visible
06 Nov 3.3 03:48:29 10° S 03:53:34 75° WSW 03:58:41 10° NNW visible
06 Nov 5.9 05:30:06 10° SW 05:33:30 18° W 05:36:55 10° NW visible
06 Nov 5.7 15:47:50 10° NE 15:51:41 21° E 15:55:30 10° SE visible
06 Nov 3.1 17:26:19 10° NNE 17:31:27 87° ESE 17:36:34 10° SSW visible
